| time (UTC) | temp F | wind direction | speed knots | gust knots | rain 1hr in | rain 24hr in | rain mn in | humidity % | barometer mb |
| 20260510203512 | 60 | 202 | 1.7 | 7.0 | 0.00 | 0.00 | 0.00 | 37 | 1019.9 |
| 20260510203008 | 60 | 336 | 1.7 | 4.3 | 0.00 | 0.00 | 0.00 | 40 | 1019.9 |
| 20260510202502 | 59 | 93 | 0.9 | 0.9 | 0.00 | 0.00 | 0.00 | 38 | 1020.1 |
| 20260510201959 | 59 | 68 | 0.9 | 3.5 | 0.00 | 0.00 | 0.00 | 38 | 1020.3 |
| 20260510201457 | 59 | 334 | 4.3 | 6.1 | 0.00 | 0.00 | 0.00 | 37 | 1020.2 |
| 20260510200953 | 59 | 68 | 0.9 | 6.1 | 0.00 | 0.00 | 0.00 | 38 | 1020.3 |
| 20260510200448 | 59 | 161 | 1.7 | 6.1 | 0.00 | 0.00 | 0.00 | 41 | 1020.2 |
| 20260510195946 | 59 | 265 | 3.5 | 7.0 | 0.00 | 0.00 | 0.00 | 39 | 1020.2 |
| 20260510195444 | 59 | 308 | 3.5 | 6.1 | 0.00 | 0.00 | 0.00 | 38 | 1020.3 |
| 20260510194939 | 60 | 357 | 5.2 | 10.4 | 0.00 | 0.00 | 0.00 | 36 | 1020.2 |
| 20260510194436 | 60 | 139 | 1.7 | 3.5 | 0.00 | 0.00 | 0.00 | 39 | 1020.4 |
| 20260510193931 | 60 | 357 | 3.5 | 6.1 | 0.00 | 0.00 | 0.00 | 37 | 1020.2 |
| 20260510193427 | 59 | 174 | 0.0 | 3.5 | 0.00 | 0.00 | 0.00 | 41 | 1020.0 |
| 20260510192922 | 59 | 232 | 2.6 | 6.1 | 0.00 | 0.00 | 0.00 | 37 | 1020.2 |
| 20260510192418 | 59 | 302 | 6.1 | 8.7 | 0.00 | 0.00 | 0.00 | 35 | 1020.3 |
| 20260510191914 | 59 | 324 | 3.5 | 4.3 | 0.00 | 0.00 | 0.00 | 38 | 1020.2 |
| 20260510191410 | 59 | 306 | 2.6 | 7.0 | 0.00 | 0.00 | 0.00 | 36 | 1020.3 |
| 20260510190907 | 59 | 235 | 5.2 | 8.7 | 0.00 | 0.00 | 0.00 | 35 | 1020.2 |
| 20260510190405 | 60 | 270 | 1.7 | 6.1 | 0.00 | 0.00 | 0.00 | 37 | 1020.2 |
| 20260510185901 | 60 | 93 | 0.9 | 4.3 | 0.00 | 0.00 | 0.00 | 37 | 1020.0 |
| 20260510185359 | 60 | 294 | 2.6 | 6.1 | 0.00 | 0.00 | 0.00 | 36 | 1020.0 |
| 20260510184856 | 59 | 204 | 2.6 | 6.1 | 0.00 | 0.00 | 0.00 | 35 | 1019.7 |
| 20260510184353 | 60 | 262 | 1.7 | 9.6 | 0.00 | 0.00 | 0.00 | 35 | 1019.8 |
| 20260510183852 | 59 | 219 | 0.0 | 2.6 | 0.00 | 0.00 | 0.00 | 35 | 1019.8 |
| 20260510183349 | 59 | 120 | 0.9 | 3.5 | 0.00 | 0.00 | 0.00 | 38 | 1019.8 |
| 20260510182844 | 59 | 317 | 5.2 | 6.1 | 0.00 | 0.00 | 0.00 | 35 | 1019.7 |
| 20260510182341 | 58 | 10 | 6.1 | 7.0 | 0.00 | 0.00 | 0.00 | 35 | 1019.7 |
| 20260510181836 | 59 | 114 | 0.0 | 6.1 | 0.00 | 0.00 | 0.00 | 35 | 1019.6 |
| 20260510181334 | 59 | 336 | 5.2 | 7.0 | 0.00 | 0.00 | 0.00 | 33 | 1019.7 |
| 20260510180830 | 59 | 13 | 6.1 | 9.6 | 0.00 | 0.00 | 0.00 | 32 | 1019.7 |
| 20260510180327 | 59 | 314 | 3.5 | 8.7 | 0.00 | 0.00 | 0.00 | 32 | 1019.6 |
| 20260510175824 | 60 | 326 | 5.2 | 6.1 | 0.00 | 0.00 | 0.00 | 33 | 1019.6 |
| 20260510175320 | 60 | 12 | 0.9 | 2.6 | 0.00 | 0.00 | 0.00 | 42 | 1019.5 |
| 20260510174816 | 59 | 138 | 0.9 | 2.6 | 0.00 | 0.00 | 0.00 | 41 | 1019.5 |
| 20260510174314 | 59 | 307 | 2.6 | 6.1 | 0.00 | 0.00 | 0.00 | 36 | 1019.5 |
| 20260510173810 | 59 | 180 | 0.9 | 4.3 | 0.00 | 0.00 | 0.00 | 41 | 1019.6 |
| 20260510173306 | 60 | 81 | 1.7 | 4.3 | 0.00 | 0.00 | 0.00 | 39 | 1019.5 |
| 20260510172802 | 59 | 286 | 1.7 | 6.1 | 0.00 | 0.00 | 0.00 | 38 | 1019.5 |
| 20260510172258 | 60 | 313 | 3.5 | 3.5 | 0.00 | 0.00 | 0.00 | 39 | 1019.5 |
| 20260510171755 | 59 | 186 | 0.9 | 2.6 | 0.00 | 0.00 | 0.00 | 45 | 1019.6 |
| 20260510171252 | 59 | 318 | 2.6 | 12.2 | 0.00 | 0.00 | 0.00 | 39 | 1019.5 |
| 20260510170749 | 59 | 155 | 0.9 | 2.6 | 0.00 | 0.00 | 0.00 | 40 | 1019.5 |
| 20260510170245 | 59 | 183 | 1.7 | 2.6 | 0.00 | 0.00 | 0.00 | 42 | 1019.5 |
| 20260510165741 | 58 | 135 | 0.0 | 3.5 | 0.00 | 0.00 | 0.00 | 43 | 1019.5 |
| 20260510165237 | 58 | 75 | 0.9 | 4.3 | 0.00 | 0.00 | 0.00 | 40 | 1019.6 |
| 20260510164734 | 58 | 35 | 2.6 | 3.5 | 0.00 | 0.00 | 0.00 | 40 | 1019.3 |
| 20260510164232 | 59 | 70 | 1.7 | 2.6 | 0.00 | 0.00 | 0.00 | 40 | 1019.3 |
| 20260510163732 | 58 | 95 | 0.9 | 3.5 | 0.00 | 0.00 | 0.00 | 40 | 1019.3 |
| 20260510163228 | 57 | 50 | 1.7 | 4.3 | 0.00 | 0.00 | 0.00 | 42 | 1019.3 |
| 20260510162727 | 57 | 49 | 2.6 | 3.5 | 0.00 | 0.00 | 0.00 | 44 | 1019.3 |
| 20260510162225 | 57 | 144 | 0.9 | 4.3 | 0.00 | 0.00 | 0.00 | 42 | 1019.3 |
| 20260510161720 | 57 | 116 | 0.0 | 0.9 | 0.00 | 0.00 | 0.00 | 46 | 1019.2 |
| 20260510161217 | 57 | 108 | 0.9 | 3.5 | 0.00 | 0.00 | 0.00 | 46 | 1019.2 |
| 20260510160714 | 56 | 123 | 0.0 | 3.5 | 0.00 | 0.00 | 0.00 | 44 | 1019.0 |
| 20260510160209 | 57 | 103 | 0.0 | 0.9 | 0.00 | 0.00 | 0.00 | 45 | 1019.3 |
| 20260510155705 | 56 | 109 | 0.9 | 3.5 | 0.00 | 0.00 | 0.00 | 46 | 1019.0 |
| 20260510155201 | 56 | 110 | 0.0 | 2.6 | 0.00 | 0.00 | 0.00 | 46 | 1019.0 |
| 20260510154657 | 56 | 208 | 0.9 | 2.6 | 0.00 | 0.00 | 0.00 | 50 | 1018.9 |
| 20260510154153 | 55 | 65 | 0.0 | 3.5 | 0.00 | 0.00 | 0.00 | 44 | 1018.9 |
| 20260510153648 | 56 | 125 | 0.9 | 2.6 | 0.00 | 0.00 | 0.00 | 45 | 1018.9 |
| 20260510153145 | 55 | 121 | 0.9 | 6.1 | 0.00 | 0.00 | 0.00 | 48 | 1018.7 |
| 20260510152642 | 55 | 70 | 1.7 | 3.5 | 0.00 | 0.00 | 0.00 | 48 | 1018.9 |
| 20260510152138 | 55 | 103 | 0.9 | 3.5 | 0.00 | 0.00 | 0.00 | 45 | 1018.8 |
| 20260510151634 | 55 | 118 | 0.0 | 2.6 | 0.00 | 0.00 | 0.00 | 48 | 1018.6 |
| 20260510151134 | 54 | 128 | 0.0 | 3.5 | 0.00 | 0.00 | 0.00 | 49 | 1018.6 |
| 20260510150634 | 55 | 68 | 2.6 | 3.5 | 0.00 | 0.00 | 0.00 | 46 | 1018.7 |
| 20260510150129 | 54 | 41 | 1.7 | 3.5 | 0.00 | 0.00 | 0.00 | 48 | 1018.6 |
| 20260510145626 | 54 | 63 | 0.0 | 3.5 | 0.00 | 0.00 | 0.00 | 45 | 1018.6 |
| 20260510133302 | 51 | 212 | 0.9 | 4.3 | 0.00 | 0.00 | 0.00 | 55 | 1018.2 |
| 20260510132757 | 51 | 212 | 0.9 | 4.3 | 0.00 | 0.00 | 0.00 | 55 | 1018.2 |
| 20260510132256 | 50 | 71 | 1.7 | 4.3 | 0.00 | 0.00 | 0.00 | 55 | 1018.3 |
| 20260510131752 | 51 | 83 | 2.6 | 6.1 | 0.00 | 0.00 | 0.00 | 54 | 1018.0 |
| 20260510131250 | 51 | 109 | 1.7 | 7.0 | 0.00 | 0.00 | 0.00 | 56 | 1017.8 |
| 20260510130746 | 50 | 74 | 1.7 | 4.3 | 0.00 | 0.00 | 0.00 | 58 | 1017.5 |
| 20260510130243 | 51 | 89 | 3.5 | 7.0 | 0.00 | 0.00 | 0.00 | 56 | 1017.6 |
| 20260510125740 | 50 | 131 | 0.9 | 6.1 | 0.00 | 0.00 | 0.00 | 61 | 1017.7 |
| 20260510125236 | 50 | 87 | 1.7 | 3.5 | 0.00 | 0.00 | 0.00 | 62 | 1017.4 |
| 20260510124732 | 50 | 116 | 0.0 | 2.6 | 0.00 | 0.00 | 0.00 | 61 | 1017.2 |
| 20260510124230 | 51 | 84 | 1.7 | 4.3 | 0.00 | 0.00 | 0.00 | 59 | 1017.2 |
| 20260510123725 | 50 | 214 | 2.6 | 3.5 | 0.00 | 0.00 | 0.00 | 62 | 1017.1 |
| 20260510123221 | 50 | 141 | 0.9 | 4.3 | 0.00 | 0.00 | 0.00 | 61 | 1017.1 |
| 20260510122717 | 49 | 62 | 0.9 | 6.1 | 0.00 | 0.00 | 0.00 | 63 | 1017.2 |
| 20260510122214 | 49 | 101 | 0.9 | 2.6 | 0.00 | 0.00 | 0.00 | 66 | 1017.1 |
| 20260510121710 | 49 | 87 | 0.9 | 0.9 | 0.00 | 0.00 | 0.00 | 67 | 1016.9 |
| 20260510121208 | 49 | 131 | 0.0 | 0.9 | 0.00 | 0.00 | 0.00 | 66 | 1017.1 |
| 20260510120705 | 49 | 56 | 0.0 | 2.6 | 0.00 | 0.00 | 0.00 | 66 | 1016.9 |
| 20260510120201 | 49 | 97 | 0.9 | 2.6 | 0.00 | 0.00 | 0.00 | 68 | 1016.8 |
| 20260510115652 | 49 | 74 | 0.0 | 2.6 | 0.00 | 0.00 | 0.00 | 68 | 1016.9 |
| 20260510115150 | 49 | 92 | 0.9 | 3.5 | 0.00 | 0.00 | 0.00 | 66 | 1016.6 |
| 20260510114645 | 49 | 72 | 0.9 | 4.3 | 0.00 | 0.00 | 0.00 | 69 | 1016.5 |
| 20260510114142 | 49 | 104 | 0.9 | 2.6 | 0.00 | 0.00 | 0.00 | 70 | 1016.0 |
| 20260510113636 | 48 | 89 | 0.9 | 2.6 | 0.00 | 0.00 | 0.00 | 69 | 1016.2 |
| 20260510113134 | 49 | 124 | 0.9 | 0.9 | 0.00 | 0.00 | 0.00 | 70 | 1015.7 |
| 20260510112631 | 49 | 98 | 0.9 | 2.6 | 0.00 | 0.00 | 0.00 | 70 | 1015.9 |
| 20260510112127 | 48 | 135 | 0.9 | 3.5 | 0.00 | 0.00 | 0.00 | 71 | 1015.9 |
| 20260510111624 | 48 | 81 | 0.9 | 4.3 | 0.00 | 0.00 | 0.00 | 72 | 1015.7 |
| 20260510111120 | 48 | 92 | 3.5 | 6.1 | 0.00 | 0.00 | 0.00 | 74 | 1015.4 |
| 20260510110615 | 48 | 110 | 0.9 | 2.6 | 0.00 | 0.00 | 0.00 | 74 | 1015.2 |
| 20260510110113 | 48 | 69 | 1.7 | 3.5 | 0.00 | 0.00 | 0.00 | 74 | 1015.4 |
| 20260510105608 | 48 | 128 | 0.0 | 0.9 | 0.00 | 0.00 | 0.00 | 75 | 1015.4 |
| 20260510105103 | 48 | 125 | 0.0 | 3.5 | 0.00 | 0.00 | 0.00 | 74 | 1015.0 |
| 20260510104600 | 48 | 119 | 0.0 | 2.6 | 0.00 | 0.00 | 0.00 | 75 | 1015.0 |
| 20260510104056 | 48 | 86 | 0.9 | 0.9 | 0.00 | 0.00 | 0.00 | 76 | 1014.7 |
| 20260510103553 | 48 | 48 | 0.9 | 2.6 | 0.00 | 0.00 | 0.00 | 77 | 1014.5 |
| 20260510103049 | 48 | 132 | 0.0 | 0.9 | 0.00 | 0.00 | 0.00 | 78 | 1014.5 |
| 20260510102545 | 48 | 60 | 0.9 | 2.6 | 0.00 | 0.00 | 0.00 | 79 | 1014.5 |
| 20260510102041 | 48 | 129 | 0.0 | 0.9 | 0.00 | 0.00 | 0.00 | 79 | 1014.4 |
| 20260510101539 | 48 | 103 | 0.9 | 0.9 | 0.00 | 0.00 | 0.00 | 79 | 1014.2 |
| 20260510101038 | 48 | 107 | 0.0 | 0.9 | 0.00 | 0.00 | 0.00 | 79 | 1014.3 |
| 20260510100533 | 48 | 72 | 0.9 | 2.6 | 0.00 | 0.00 | 0.00 | 79 | 1013.9 |
| 20260510100031 | 48 | 109 | 0.0 | 0.9 | 0.00 | 0.00 | 0.00 | 80 | 1014.1 |
| 20260510095526 | 48 | 115 | 0.0 | 0.0 | 0.00 | 0.00 | 0.00 | 80 | 1014.1 |
| 20260510095025 | 48 | 119 | 0.0 | 0.9 | 0.00 | 0.00 | 0.00 | 80 | 1014.1 |
| 20260510094520 | 48 | 99 | 0.9 | 2.6 | 0.00 | 0.00 | 0.00 | 81 | 1014.0 |
| 20260510094016 | 48 | 97 | 0.0 | 0.9 | 0.00 | 0.00 | 0.00 | 81 | 1014.1 |
| 20260510093512 | 48 | 122 | 0.0 | 2.6 | 0.00 | 0.00 | 0.00 | 81 | 1013.9 |
| 20260510093009 | 48 | 123 | 0.0 | 0.0 | 0.00 | 0.00 | 0.00 | 83 | 1014.0 |
| 20260510092506 | 48 | 123 | 0.0 | 0.9 | 0.00 | 0.00 | 0.00 | 84 | 1013.7 |
| 20260510092005 | 47 | 194 | 0.0 | 0.0 | 0.00 | 0.00 | 0.00 | 85 | 1013.7 |
| 20260510091503 | 48 | 194 | 0.0 | 0.0 | 0.00 | 0.00 | 0.00 | 86 | 1013.7 |
| 20260510090959 | 47 | 194 | 0.0 | 0.0 | 0.00 | 0.00 | 0.00 | 87 | 1013.4 |
| 20260510090456 | 48 | 194 | 0.0 | 0.0 | 0.00 | 0.00 | 0.00 | 87 | 1013.3 |
| 20260510085951 | 48 | 194 | 0.0 | 0.0 | 0.00 | 0.00 | 0.00 | 87 | 1013.3 |
| 20260510085447 | 48 | 195 | 0.0 | 0.0 | 0.00 | 0.00 | 0.00 | 87 | 1013.2 |
| 20260510084942 | 48 | 196 | 0.0 | 0.9 | 0.00 | 0.00 | 0.00 | 87 | 1013.3 |
| 20260510084440 | 47 | 183 | 0.0 | 0.0 | 0.00 | 0.00 | 0.00 | 87 | 1012.9 |
| 20260510083936 | 48 | 183 | 0.0 | 0.0 | 0.00 | 0.00 | 0.00 | 87 | 1013.0 |
| 20260510083433 | 48 | 183 | 0.0 | 0.0 | 0.00 | 0.00 | 0.00 | 86 | 1012.9 |
| 20260510082928 | 48 | 183 | 0.0 | 0.0 | 0.00 | 0.00 | 0.00 | 86 | 1012.7 |
| 20260510082426 | 48 | 183 | 0.0 | 0.0 | 0.00 | 0.00 | 0.00 | 86 | 1012.9 |
| 20260510081925 | 48 | 183 | 0.0 | 0.0 | 0.00 | 0.00 | 0.00 | 86 | 1012.5 |
| 20260510081421 | 47 | 183 | 0.0 | 0.0 | 0.00 | 0.00 | 0.00 | 85 | 1012.7 |
| 20260510080918 | 47 | 183 | 0.0 | 0.0 | 0.00 | 0.00 | 0.00 | 85 | 1012.7 |
| 20260510080416 | 48 | 183 | 0.0 | 0.0 | 0.00 | 0.00 | 0.00 | 84 | 1012.6 |
| 20260510075914 | 48 | 183 | 0.0 | 0.0 | 0.00 | 0.00 | 0.00 | 84 | 1012.5 |
| 20260510075412 | 48 | 184 | 0.0 | 0.9 | 0.00 | 0.00 | 0.00 | 84 | 1012.1 |
| 20260510074908 | 48 | 179 | 0.0 | 0.9 | 0.00 | 0.00 | 0.00 | 83 | 1012.2 |
| 20260510074405 | 48 | 189 | 0.9 | 0.9 | 0.00 | 0.00 | 0.00 | 83 | 1011.9 |
| 20260510073902 | 49 | 123 | 0.0 | 0.0 | 0.00 | 0.00 | 0.00 | 82 | 1011.7 |
| 20260510073357 | 49 | 123 | 0.0 | 0.0 | 0.00 | 0.00 | 0.00 | 81 | 1011.7 |
| 20260510072853 | 49 | 123 | 0.0 | 0.9 | 0.00 | 0.00 | 0.00 | 81 | 1011.7 |
| 20260510072350 | 49 | 123 | 0.0 | 0.0 | 0.00 | 0.00 | 0.00 | 80 | 1011.5 |
| 20260510071846 | 49 | 123 | 0.0 | 0.0 | 0.00 | 0.00 | 0.00 | 78 | 1011.7 |
| 20260510071343 | 50 | 123 | 0.0 | 0.0 | 0.00 | 0.00 | 0.00 | 77 | 1011.4 |
| 20260510070842 | 50 | 122 | 0.0 | 0.0 | 0.00 | 0.00 | 0.00 | 77 | 1011.5 |
| 20260510070339 | 50 | 125 | 0.0 | 0.0 | 0.00 | 0.00 | 0.00 | 75 | 1011.5 |
| 20260510065839 | 51 | 125 | 0.0 | 0.9 | 0.00 | 0.00 | 0.00 | 74 | 1011.5 |
| 20260510065336 | 51 | 131 | 0.0 | 0.0 | 0.00 | 0.00 | 0.00 | 74 | 1011.6 |
| 20260510064832 | 51 | 113 | 0.0 | 0.0 | 0.00 | 0.00 | 0.00 | 73 | 1011.5 |
| 20260510064331 | 51 | 113 | 0.0 | 0.0 | 0.00 | 0.00 | 0.00 | 72 | 1011.3 |
| 20260510063827 | 52 | 76 | 1.7 | 2.6 | 0.00 | 0.00 | 0.00 | 71 | 1011.4 |
| 20260510063323 | 52 | 116 | 0.0 | 0.9 | 0.00 | 0.00 | 0.00 | 70 | 1011.2 |
| 20260510062820 | 52 | 129 | 0.0 | 0.0 | 0.00 | 0.00 | 0.00 | 70 | 1011.3 |
| 20260510062315 | 52 | 113 | 0.0 | 2.6 | 0.00 | 0.00 | 0.00 | 69 | 1011.4 |
| 20260510061816 | 53 | 111 | 0.0 | 0.9 | 0.00 | 0.00 | 0.00 | 69 | 1011.2 |
| 20260510061313 | 53 | 68 | 0.9 | 6.1 | 0.00 | 0.00 | 0.00 | 69 | 1011.3 |
| 20260510060809 | 53 | 73 | 1.7 | 3.5 | 0.00 | 0.00 | 0.00 | 69 | 1011.0 |
| 20260510060306 | 53 | 108 | 0.9 | 3.5 | 0.00 | 0.00 | 0.00 | 69 | 1011.1 |
| 20260510055804 | 53 | 54 | 0.9 | 2.6 | 0.00 | 0.00 | 0.00 | 70 | 1010.9 |
| 20260510055306 | 53 | 90 | 0.9 | 7.0 | 0.00 | 0.00 | 0.00 | 69 | 1011.0 |
| 20260510054802 | 54 | 83 | 1.7 | 6.1 | 0.00 | 0.00 | 0.00 | 71 | 1011.1 |
| 20260510054258 | 54 | 82 | 3.5 | 9.6 | 0.00 | 0.00 | 0.00 | 74 | 1010.9 |
| 20260510053758 | 54 | 106 | 3.5 | 8.7 | 0.00 | 0.00 | 0.00 | 80 | 1010.7 |
| 20260510053253 | 56 | 54 | 3.5 | 7.0 | 0.00 | 0.00 | 0.00 | 81 | 1010.6 |
| 20260510052750 | 57 | 39 | 2.6 | 7.0 | 0.00 | 0.00 | 0.00 | 80 | 1010.2 |
| 20260510052246 | 58 | 9 | 2.6 | 3.5 | 0.00 | 0.00 | 0.00 | 80 | 1010.2 |
| 20260510051742 | 58 | 223 | 0.0 | 0.0 | 0.00 | 0.00 | 0.00 | 79 | 1009.7 |
| 20260510051238 | 58 | 223 | 0.0 | 0.0 | 0.00 | 0.00 | 0.00 | 79 | 1009.6 |
| 20260510050735 | 58 | 223 | 0.0 | 0.9 | 0.00 | 0.00 | 0.00 | 78 | 1009.7 |
| 20260510050233 | 58 | 228 | 0.0 | 2.6 | 0.00 | 0.00 | 0.00 | 78 | 1009.7 |
| 20260510045729 | 59 | 185 | 0.0 | 0.9 | 0.00 | 0.00 | 0.00 | 79 | 1009.6 |
| 20260510045226 | 58 | 26 | 2.6 | 10.4 | 0.00 | 0.00 | 0.00 | 79 | 1009.6 |
| 20260510044722 | 58 | 186 | 0.0 | 2.6 | 0.00 | 0.00 | 0.00 | 80 | 1009.3 |
| 20260510044221 | 59 | 227 | 5.2 | 7.0 | 0.00 | 0.00 | 0.00 | 80 | 1008.9 |
| 20260510043715 | 58 | 237 | 6.1 | 12.2 | 0.00 | 0.00 | 0.00 | 81 | 1008.9 |
| 20260510043212 | 58 | 233 | 3.5 | 8.7 | 0.00 | 0.00 | 0.00 | 81 | 1009.0 |
| 20260510042709 | 58 | 220 | 4.3 | 8.7 | 0.00 | 0.00 | 0.00 | 81 | 1008.6 |
| 20260510042206 | 58 | 210 | 3.5 | 6.1 | 0.00 | 0.00 | 0.00 | 81 | 1008.3 |
| 20260510041703 | 58 | 193 | 0.9 | 4.3 | 0.00 | 0.00 | 0.00 | 80 | 1008.3 |
| 20260510041200 | 58 | 198 | 1.7 | 3.5 | 0.00 | 0.00 | 0.00 | 79 | 1008.3 |
| 20260510040657 | 58 | 202 | 2.6 | 3.5 | 0.00 | 0.00 | 0.00 | 78 | 1008.3 |
| 20260510040154 | 59 | 225 | 2.6 | 3.5 | 0.00 | 0.00 | 0.00 | 78 | 1008.1 |
| 20260510035649 | 59 | 215 | 3.5 | 4.3 | 0.00 | 0.51 | 0.51 | 78 | 1008.0 |
| 20260510035145 | 59 | 209 | 2.6 | 3.5 | 0.00 | 0.51 | 0.51 | 78 | 1008.0 |
| 20260510034642 | 59 | 178 | 0.0 | 3.5 | 0.00 | 0.51 | 0.51 | 78 | 1008.0 |
| 20260510034139 | 59 | 200 | 0.9 | 3.5 | 0.00 | 0.51 | 0.51 | 78 | 1008.2 |
| 20260510033635 | 59 | 189 | 0.9 | 2.6 | 0.00 | 0.51 | 0.51 | 78 | 1008.1 |
| 20260510033133 | 59 | 212 | 3.5 | 7.0 | 0.00 | 0.51 | 0.51 | 79 | 1008.2 |
| 20260510032629 | 59 | 214 | 1.7 | 3.5 | 0.00 | 0.51 | 0.51 | 79 | 1008.2 |
| 20260510032124 | 59 | 188 | 0.9 | 4.3 | 0.00 | 0.51 | 0.51 | 79 | 1008.2 |
| 20260510031619 | 59 | 200 | 3.5 | 8.7 | 0.00 | 0.51 | 0.51 | 78 | 1008.1 |
| 20260510031116 | 59 | 218 | 5.2 | 8.7 | 0.00 | 0.51 | 0.51 | 78 | 1008.3 |
| 20260510030611 | 59 | 209 | 3.5 | 4.3 | 0.00 | 0.51 | 0.51 | 78 | 1008.3 |
| 20260510030109 | 59 | 222 | 4.3 | 7.0 | 0.00 | 0.51 | 0.51 | 78 | 1008.3 |
| 20260510025606 | 58 | 210 | 5.2 | 6.1 | 0.00 | 0.51 | 0.51 | 80 | 1008.2 |
| 20260510025103 | 58 | 212 | 3.5 | 8.7 | 0.00 | 0.51 | 0.51 | 81 | 1008.2 |
| 20260510024600 | 57 | 208 | 1.7 | 3.5 | 0.00 | 0.51 | 0.51 | 83 | 1008.2 |
| 20260510024056 | 57 | 168 | 0.9 | 0.9 | 0.00 | 0.51 | 0.51 | 83 | 1008.1 |
| 20260510023552 | 58 | 177 | 0.0 | 0.9 | 0.00 | 0.51 | 0.51 | 82 | 1008.1 |
| 20260510023050 | 58 | 178 | 1.7 | 3.5 | 0.00 | 0.51 | 0.51 | 82 | 1008.1 |
| 20260510022549 | 58 | 216 | 3.5 | 6.1 | 0.00 | 0.51 | 0.51 | 83 | 1008.0 |
| 20260510022044 | 58 | 265 | 2.6 | 4.3 | 0.00 | 0.51 | 0.51 | 84 | 1008.0 |
| 20260510021540 | 57 | 232 | 4.3 | 7.0 | 0.00 | 0.51 | 0.51 | 86 | 1008.2 |
| 20260510021038 | 57 | 207 | 6.1 | 7.0 | 0.00 | 0.51 | 0.51 | 88 | 1008.3 |
| 20260510020538 | 56 | 222 | 4.3 | 6.1 | 0.00 | 0.51 | 0.51 | 90 | 1008.5 |
| 20260510020034 | 56 | 172 | 0.0 | 0.9 | 0.00 | 0.51 | 0.51 | 90 | 1007.9 |
| 20260510015530 | 56 | 171 | 0.0 | 0.9 | 0.00 | 0.51 | 0.51 | 89 | 1008.0 |
| 20260510015025 | 56 | 166 | 0.0 | 0.0 | 0.00 | 0.51 | 0.51 | 89 | 1007.9 |
| 20260510014522 | 56 | 166 | 0.9 | 0.9 | 0.00 | 0.51 | 0.51 | 88 | 1007.4 |
| 20260510014019 | 56 | 166 | 0.0 | 0.0 | 0.00 | 0.51 | 0.51 | 87 | 1007.3 |
| 20260510013514 | 56 | 158 | 0.0 | 0.9 | 0.00 | 0.51 | 0.51 | 87 | 1007.4 |
| 20260510013011 | 56 | 159 | 0.0 | 0.0 | 0.00 | 0.51 | 0.51 | 87 | 1007.5 |
| 20260510012505 | 56 | 154 | 0.0 | 0.9 | 0.00 | 0.51 | 0.51 | 86 | 1007.2 |
| 20260510012001 | 57 | 154 | 0.0 | 0.9 | 0.00 | 0.51 | 0.51 | 85 | 1007.5 |
| 20260510011500 | 57 | 166 | 0.0 | 0.0 | 0.00 | 0.51 | 0.51 | 84 | 1007.0 |
| 20260510010957 | 57 | 187 | 0.0 | 0.9 | 0.00 | 0.51 | 0.51 | 83 | 1007.0 |
| 20260510010454 | 57 | 186 | 0.0 | 0.9 | 0.00 | 0.51 | 0.51 | 82 | 1007.2 |
| 20260510005951 | 57 | 177 | 0.9 | 4.3 | 0.00 | 0.51 | 0.51 | 82 | 1007.3 |
| 20260510005447 | 57 | 181 | 0.9 | 2.6 | 0.00 | 0.51 | 0.51 | 82 | 1007.2 |
| 20260510004945 | 58 | 184 | 0.0 | 3.5 | 0.00 | 0.51 | 0.51 | 82 | 1007.1 |
| 20260510004441 | 58 | 204 | 1.7 | 2.6 | 0.00 | 0.51 | 0.51 | 82 | 1007.2 |
| 20260510003940 | 58 | 211 | 1.7 | 3.5 | 0.00 | 0.51 | 0.51 | 82 | 1007.3 |
| 20260510003436 | 58 | 198 | 0.0 | 0.9 | 0.00 | 0.51 | 0.51 | 82 | 1007.1 |
| 20260510002936 | 58 | 196 | 1.7 | 4.3 | 0.00 | 0.51 | 0.51 | 83 | 1007.2 |
| 20260510002433 | 58 | 200 | 0.0 | 0.9 | 0.00 | 0.51 | 0.51 | 84 | 1007.3 |
| 20260510001929 | 58 | 217 | 3.5 | 4.3 | 0.00 | 0.51 | 0.51 | 84 | 1007.3 |
| 20260510001427 | 58 | 195 | 1.7 | 4.3 | 0.00 | 0.51 | 0.51 | 84 | 1007.1 |
| 20260510000924 | 58 | 212 | 1.7 | 6.1 | 0.00 | 0.51 | 0.51 | 85 | 1007.0 |
| 20260510000421 | 58 | 205 | 2.6 | 4.3 | 0.00 | 0.51 | 0.51 | 85 | 1007.2 |
| 20260509235917 | 58 | 216 | 3.5 | 6.1 | 0.00 | 0.51 | 0.51 | 85 | 1007.1 |
| 20260509235414 | 58 | 200 | 1.7 | 2.6 | 0.00 | 0.51 | 0.51 | 86 | 1007.2 |
| 20260509234910 | 58 | 213 | 4.3 | 7.0 | 0.00 | 0.51 | 0.51 | 86 | 1007.1 |
| 20260509234407 | 58 | 209 | 1.7 | 4.3 | 0.00 | 0.51 | 0.51 | 87 | 1006.9 |
| 20260509233905 | 58 | 197 | 2.6 | 7.0 | 0.00 | 0.51 | 0.51 | 87 | 1006.8 |
| 20260509233403 | 58 | 209 | 3.5 | 6.1 | 0.00 | 0.51 | 0.51 | 87 | 1006.7 |
| 20260509232857 | 58 | 215 | 2.6 | 3.5 | 0.00 | 0.51 | 0.51 | 88 | 1006.9 |
| 20260509232356 | 58 | 247 | 3.5 | 6.1 | 0.00 | 0.51 | 0.51 | 88 | 1006.8 |
| 20260509231852 | 57 | 223 | 3.5 | 7.0 | 0.07 | 0.51 | 0.51 | 89 | 1006.9 |
| 20260509231349 | 57 | 256 | 2.6 | 6.1 | 0.12 | 0.51 | 0.51 | 90 | 1006.7 |
| 20260509230847 | 57 | 232 | 7.0 | 9.6 | 0.05 | 0.50 | 0.50 | 91 | 1006.9 |
| 20260509230343 | 57 | 225 | 3.5 | 7.0 | 0.00 | 0.49 | 0.49 | 91 | 1007.1 |
| 20260509225838 | 56 | 244 | 4.3 | 8.7 | 0.07 | 0.49 | 0.49 | 91 | 1007.3 |
| 20260509225336 | 56 | 234 | 1.7 | 4.3 | 0.07 | 0.49 | 0.49 | 91 | 1007.0 |
| 20260509224832 | 56 | 186 | 0.9 | 2.6 | 0.00 | 0.48 | 0.48 | 91 | 1007.0 |
| 20260509224328 | 56 | 202 | 0.9 | 9.6 | 0.71 | 0.48 | 0.48 | 90 | 1007.0 |
| 20260509223825 | 56 | 351 | 7.0 | 12.2 | 2.22 | 0.48 | 0.48 | 89 | 1006.4 |
| 20260509223322 | 58 | 353 | 8.7 | 13.9 | 1.87 | 0.31 | 0.31 | 84 | 1007.2 |
| 20260509222819 | 61 | 140 | 1.7 | 13.0 | 0.50 | 0.08 | 0.08 | 75 | 1006.9 |
| 20260509222314 | 68 | 329 | 4.3 | 6.1 | 0.00 | 0.00 | 0.00 | 58 | 1005.5 |
| 20260509221809 | 69 | 230 | 2.6 | 12.2 | 0.00 | 0.00 | 0.00 | 57 | 1004.9 |
| 20260509221307 | 70 | 211 | 10.4 | 18.2 | 0.00 | 0.00 | 0.00 | 52 | 1004.4 |
| 20260509220802 | 70 | 218 | 7.8 | 13.0 | 0.00 | 0.00 | 0.00 | 50 | 1004.3 |
| 20260509220259 | 70 | 202 | 7.8 | 13.0 | 0.00 | 0.00 | 0.00 | 50 | 1004.6 |
| 20260509215754 | 70 | 206 | 7.0 | 13.0 | 0.00 | 0.00 | 0.00 | 49 | 1004.5 |
| 20260509215251 | 71 | 230 | 6.1 | 7.0 | 0.00 | 0.00 | 0.00 | 50 | 1004.5 |
| 20260509214748 | 71 | 219 | 5.2 | 9.6 | 0.00 | 0.00 | 0.00 | 49 | 1004.3 |
| 20260509214245 | 71 | 235 | 9.6 | 19.1 | 0.00 | 0.00 | 0.00 | 48 | 1004.6 |
| 20260509213742 | 71 | 219 | 12.2 | 19.1 | 0.00 | 0.00 | 0.00 | 47 | 1004.4 |
| 20260509213238 | 72 | 260 | 8.7 | 13.9 | 0.00 | 0.00 | 0.00 | 48 | 1004.4 |
| 20260509212735 | 72 | 217 | 11.3 | 20.0 | 0.00 | 0.00 | 0.00 | 48 | 1004.5 |
| 20260509212233 | 72 | 235 | 9.6 | 16.5 | 0.00 | 0.00 | 0.00 | 46 | 1004.3 |
| 20260509211728 | 73 | 276 | 6.1 | 18.2 | 0.00 | 0.00 | 0.00 | 47 | 1004.4 |
| 20260509211225 | 73 | 138 | 1.7 | 13.0 | 0.00 | 0.00 | 0.00 | 49 | 1004.0 |
| 20260509210721 | 73 | 200 | 6.1 | 18.2 | 0.00 | 0.00 | 0.00 | 50 | 1004.3 |
| 20260509210219 | 72 | 191 | 9.6 | 13.0 | 0.00 | 0.00 | 0.00 | 49 | 1004.3 |
| 20260509205719 | 73 | 229 | 7.8 | 18.2 | 0.00 | 0.00 | 0.00 | 49 | 1004.3 |
| 20260509205218 | 73 | 214 | 3.5 | 7.0 | 0.00 | 0.00 | 0.00 | 49 | 1004.3 |
| 20260509204715 | 73 | 234 | 2.6 | 9.6 | 0.00 | 0.00 | 0.00 | 48 | 1004.4 |
| 20260509204211 | 72 | 220 | 3.5 | 16.5 | 0.00 | 0.00 | 0.00 | 50 | 1004.7 |
| 20260509203707 | 72 | 250 | 15.6 | 19.1 | 0.00 | 0.00 | 0.00 | 50 | 1004.8 |